Home   Weather   Perg   Past weeks

Flag for Austria Past Weather in Perg, Upper Austria, Austria — Yesterday and Last 2 Weeks

49 °F


Feels Like: 47 °F
Forecast: 32 / 53 °F
Wind: 6 mph from Northwest

Location: Linz / Hoersching-Flughafen

Current Time: Oct 21, 2016 at 5:00:22 PM

Latest Report: Oct 21, 2016 at 4:00 PM

Visibility: 25 mi

Pressure: 29.96 "Hg

Humidity: 74%

Dew Point: 41 °F

Location of PergLocation

Past Weather in Perg — Graph


Perg Temperature Yesterday

Maximum temperature yesterday: 50 °F (at 4:00 PM)
Minimum temperature yesterday: 41 °F (at 11:00 PM)
Average temperature yesterday: 46 °F

High & Low Weather Summary for the Past Weeks

High66 °F (Oct 16, 4:00 PM)100% (Oct 8, 6:00 AM)30.32 "Hg (Oct 8, 6:00 AM)
Low35 °F (Oct 21, 4:00 AM)54% (Oct 9, 4:00 PM)29.75 "Hg (Oct 15, 6:00 AM)
Average48 °F88%30.09 "Hg
* Reported Oct 6 3:00 PM — Oct 21 3:00 PM, Perg, Weather by CustomWeather, © 2016

Note: Actual official high and low records may vary slightly from our data, if they occured in-between our weather recording intervals... More about our weather records


Perg Weather History for the Previous 24 Hours

Scroll right to see more
Time TempWeatherWind HumidityBarometerVisibility
3:00 PM
Fri, Oct 21
49 °FOvercast.5 mph76%29.96 "Hg28 mi
2:00 PMN/APassing clouds.13 mphN/AN/A2 mi
1:00 PM46 °FOvercast.N/A82%29.98 "Hg28 mi
12:00 PM44 °FLow clouds.N/A90%29.99 "Hg16 mi
11:00 AM42 °FLow clouds.N/A97%29.99 "Hg6 mi
10:00 AM40 °FLow clouds.N/A100%29.99 "Hg3 mi
9:00 AM38 °FLow clouds.N/A100%30.01 "Hg4 mi
8:00 AM37 °FLight snow. Low clouds.N/A100%30.00 "Hg1 mi
7:00 AM37 °FLight snow. Low clouds.N/A100%29.98 "Hg1 mi
6:00 AM36 °FLight snow. Low clouds.5 mph100%29.99 "Hg0 mi
5:00 AM36 °FPassing clouds.N/A100%30.00 "Hg0 mi
4:00 AM35 °FLight snow. Passing clouds.N/A100%30.01 "Hg0 mi
3:00 AM36 °FLight snow. Dense fog.N/A100%30.01 "Hg0 mi
2:00 AM38 °FLight snow. Dense fog.N/A100%30.01 "Hg0 mi
1:00 AM40 °FLight snow. Low clouds.N/A100%30.00 "Hg0 mi
12:00 AM40 °FLight snow. Low clouds.N/A100%30.00 "Hg0 mi
11:00 PM
Thu, Oct 20
41 °FDrizzle. Dense fog.N/A100%29.99 "Hg0 mi
10:00 PM41 °FQuite cool.N/A97%29.99 "Hg4 mi
9:00 PM42 °FQuite cool.N/A97%29.99 "Hg4 mi
8:00 PM44 °FPassing clouds.N/A96%30.00 "Hg7 mi
7:00 PM45 °FPassing clouds.5 mph95%29.99 "Hg9 mi
6:00 PM48 °FScattered clouds.N/A87%29.98 "Hg28 mi
5:00 PM50 °FScattered clouds.3 mph82%29.98 "Hg31 mi
Weather by CustomWeather, © 2016

See weather overviewHow to use our weather pages